Location: Potomac
(46.8816°N, 113.5795°W)
Time: 13:19:26
(UTC+00:00)

Gurwin Techsat 1B - Pass Details

Date: 01 July 2022
Orbit: 812 x 813 km, 98.8° (Epoch: 13 August)

Event Time Altitude Azimuth Distance (km) Brightness Sun altitude
Rises 08:45:50 0° 30° (NNE) 3,346 13.3 -18.4°
Reaches altitude 10° 08:49:15 10° 53° (NE) 2,408 11.8 -18.2°
Maximum altitude 08:52:17 15° 88° (E) 2,054 10.9 -18.0°
Drops below altitude 10° 08:55:19 10° 124° (ESE) 2,397 10.9 -17.9°
Enters shadow 08:57:04 - 137° (SE) 2,837 11.2 -17.8°
